Location: Krakow
(50.0830°N, 19.9170°E)
Time: 04:39:54
(UTC+02:00)

Tiros 1 - Pass Details

Date: 13 February 2023
Orbit: 627 x 662 km, 48.4° (Epoch: 25 March)

Event Time Altitude Azimuth Distance (km) Brightness Sun altitude
Rises 23:26:21 0° 272° (W) 2,910 - -52.7°
Reaches altitude 10° 23:28:40 10° 270° (W) 2,003 - -52.7°
Maximum altitude 23:33:15 70° 188° (S) 672 - -52.9°
Drops below altitude 10° 23:37:51 10° 105° (ESE) 2,011 - -53.0°
Sets 23:40:11 0° 103° (ESE) 2,922 - -53.0°
